#timestamp,LO_Frequency,Hit,StdDev 
1551787215.3,286047002.0,N
1551787235.1,286047002.0,N
1551787236.0,286047002.0,N
1551787255.8,286046999.8,N
1551787275.7,286047001.4,N
1551787295.5,286047005.2,Y
1551787315.3,286047003.1,P
1551787335.2,286047002.5,P
1551787355.0,286047001.5,P
1551787355.9,286047001.5,N
1551787375.8,286046999.8,N
1551787395.6,286047002.7,N
1551787415.4,286047002.8,N
1551787435.3,286047002.2,N
1551787455.1,286047002.4,N
1551787475.8,286046999.7,N
1551787495.7,286047000.4,N
1551787515.5,286047001.8,N
1551787535.4,286047003.6,Y
1551787555.2,286047003.0,P
1551787575.0,286047001.4,N
1551787576.0,286047001.4,N
1551787595.8,286047002.0,N
1551787615.6,286047001.4,N
1551787635.5,286047003.0,Y
1551787655.3,286047003.7,P
1551787675.1,286047003.3,P
1551787695.9,286047004.0,P
1551787715.7,286046999.7,N
1551787735.6,286047002.5,N
1551787755.4,286047002.3,N
1551787775.2,286047001.9,N
1551787795.1,286047000.0,N
1551787796.0,286047000.0,N
1551787815.8,286047000.8,N
1551787835.6,286046999.4,N
1551787855.5,286046999.0,N
1551787875.3,286046999.3,N
1551787895.2,286046999.2,N
1551787915.9,286046997.8,N
1551787935.7,286046996.5,N
1551787955.6,286046997.3,N
1551787975.4,286046997.9,N
1551787995.2,286046996.7,N
1551788015.1,286046996.9,N
1551788016.0,286046996.9,N
1551788035.8,286046997.0,N
1551788055.7,286046999.4,N
1551788075.5,286046999.4,N
1551788095.3,286046998.3,N
1551788115.2,286046998.6,N
1551788135.0,286046996.5,N
1551788135.9,286046996.5,N
1551788155.8,286046997.2,N
1551788175.6,286046998.0,N
1551788195.4,286046995.2,N
1551788215.3,286046998.0,N
1551788235.1,286046995.4,N
1551788255.8,286046995.7,N
1551788275.7,286046995.2,N
1551788295.5,286046996.2,N
1551788315.4,286046996.1,N
1551788335.2,286046996.9,N
1551788355.0,286046997.0,N
1551788355.9,286046997.0,N
1551788375.8,286046997.4,N
1551788395.6,286046997.6,N
1551788415.5,286046997.2,N
1551788435.3,286046997.8,N
1551788455.1,286046996.8,Y
1551788475.9,286047001.2,P
1551788495.7,286047000.8,N
1551788515.5,286046998.6,N
1551788535.4,286046996.6,N
1551788555.2,286046995.9,N
1551788575.1,286046997.6,N
1551788576.0,286046997.6,N
1551788595.8,286046996.9,N
1551788615.6,286047001.0,N
1551788635.5,286046997.2,N
1551788655.3,286046997.5,N
1551788675.1,286046996.7,N
1551788695.9,286046999.3,N
1551788715.7,286046998.4,N
1551788735.6,286046999.0,N
1551788755.4,286046998.9,N
1551788775.2,286047000.3,N
1551788795.1,286047000.0,N
1551788796.0,286047000.0,N
1551788815.8,286047000.0,N
1551788835.6,286046999.1,N
1551788855.5,286046999.0,N
1551788875.3,286046999.5,N
1551788895.2,286046998.1,N
1551788915.9,286047000.8,N
1551788935.7,286047001.2,N
1551788955.6,286046999.0,N
1551788975.4,286047001.2,N
1551788995.2,286047000.9,N
1551789015.1,286047000.4,N
1551789016.0,286047000.4,N
1551789035.8,286047000.3,N
1551789055.7,286047002.2,N
1551789075.5,286047000.1,N
1551789095.3,286046999.9,N
1551789115.2,286047003.8,N
1551789135.0,286047005.7,Y
1551789135.9,286047005.7,P
1551789155.8,286047007.0,N
1551789175.6,286047007.7,N
1551789195.4,286047012.1,Y
1551789215.3,286047009.1,P
1551789235.1,286047006.4,P
1551789255.9,286047007.2,P
1551789275.7,286047005.1,Y
1551789295.5,286046999.0,P
1551789315.4,286046995.2,N
1551789335.2,286046993.3,N
1551789355.0,286046994.5,N
1551789355.9,286046994.5,N
1551789375.8,286046993.9,N
1551789395.6,286046994.2,N
1551789415.5,286046994.6,N
1551789435.3,286046994.2,N
1551789455.1,286046992.2,N
1551789475.9,286046990.2,N
1551789495.7,286046991.0,N
1551789515.5,286046990.8,N
1551789535.4,286046988.9,N
1551789555.2,286046991.2,N
1551789575.1,286046991.3,N
1551789576.0,286046991.3,N
1551789595.8,286046990.1,N
1551789615.5,286046990.3,N
1551789635.4,286046991.0,N
1551789655.2,286046991.2,N
1551789675.0,286046990.9,N
1551789675.9,286046990.9,N
1551789695.8,286046991.3,N
1551789715.6,286046988.6,Y
1551789735.5,286046997.4,P
1551789755.3,286046999.1,N
1551789775.2,286046999.6,N
1551789795.9,286046998.7,N
1551789815.7,286046999.1,N
1551789835.6,286046999.5,N
1551789855.4,286046996.6,N
1551789875.2,286046997.1,N
1551789895.1,286046997.5,N
1551789896.0,286046997.5,N
1551789915.8,286046996.7,N
1551789935.7,286046995.1,N
1551789955.5,286046997.8,N
1551789975.3,286046997.3,N
1551789995.2,286046996.6,N
1551790015.0,286046997.0,N
1551790015.9,286046997.0,N
1551790035.8,286046996.5,N
1551790055.6,286046997.6,N
1551790075.4,286046997.7,N
1551790095.3,286046996.9,N
1551790115.1,286046994.9,Y
1551790135.9,286046999.1,P
1551790155.7,286047001.2,N
1551790175.5,286047000.7,N
1551790195.4,286047000.6,N
1551790215.2,286047000.4,N
1551790235.1,286047000.0,N
1551790236.0,286047000.0,N
1551790255.1,286046998.9,N
1551790256.0,286046998.9,N
1551790275.8,286046996.5,Y
1551790295.7,286046998.3,P
1551790315.5,286047002.7,P
1551790335.3,286046999.9,N
1551790355.2,286047000.3,N
1551790375.0,286047000.6,N
1551790375.9,286047000.6,N
1551790395.8,286046999.7,N
1551790415.6,286046999.7,N
1551790435.4,286047002.2,N
1551790455.3,286046999.8,N
1551790475.1,286047000.5,N
1551790495.9,286047000.4,N
1551790515.7,286047002.5,N
1551790535.5,286047002.0,N
1551790555.4,286047003.8,Y
1551790575.2,286047002.0,P
1551790595.0,286047002.7,P
1551790595.9,286047002.7,P
1551790615.8,286046999.7,N
1551790635.6,286047002.8,N
1551790655.5,286047001.0,N
1551790675.3,286047000.5,N
1551790695.1,286046998.6,N
1551790715.9,286047000.9,N
1551790735.7,286047000.7,N
1551790755.5,286046998.5,N
1551790775.4,286046998.8,N
1551790795.2,286046998.2,N
